Flag for U.S.A. Weather past 2 weeks in Buffalo, New York, U.S.A.

Now
50 °F

Light rain. Fog.


Feels Like: 46 °F
Forecast: 46 / 52 °F
Wind: 10 mph from North

Location: Greater Buffalo International Airport

Current Time: Oct 21, 2014 at 3:27:18 PM

Latest Report: Oct 21, 2014 at 2:54 PM


Visibility: 5 mi

Pressure: 29.89 "Hg

Humidity: 93%

Dew point: 48 °F

Location of BuffaloLocation

Historic Weather in Buffalo — Graph

°F

Buffalo temperature yesterday

Maximum temperature yesterday: 56 °F (at 3:54 PM)
Minimum temperature yesterday: 42 °F (at 12:54 AM)
Average temperature yesterday: 49 °F

Past Weeks' High & Low Weather Summary

 TemperatureHumidityPressure
High79 °F (Oct 14, 11:54 AM)100% (Oct 16, 4:54 AM)30.29 "Hg (Oct 16, 4:54 AM)
Low36 °F (Oct 12, 5:54 AM)35% (Oct 12, 4:54 PM)29.52 "Hg (Oct 18, 3:54 AM)
Average54 °F71%29.90 "Hg
* Reported Oct 6 1:54 PM — Oct 21 1:54 PM, Buffalo, Weather by CustomWeather, © 2014

Note: Actual official high and low records may vary slightly from our data, if they occured in-between our weather recording intervals... More about our weather records

Advertising

Buffalo weather history for previous 24 hours

 ConditionsComfort  
Time TempWeatherWind HumidityBarometerVisibility
1:54 PM
Oct 21
53 °FCloudy.6 mph83%29.87 "Hg10 mi
12:54 PM53 °FLight rain. Mostly cloudy.6 mph83%29.87 "Hg9 mi
11:54 AM53 °FMostly cloudy.5 mph83%29.86 "Hg9 mi
10:54 AM53 °FMostly cloudy.5 mph83%29.85 "Hg7 mi
9:59 AM52 °FFog.7 mph86%29.84 "Hg5 mi
9:54 AM52 °FFog.6 mph86%29.85 "Hg5 mi
8:54 AM51 °FFog.7 mph89%29.84 "Hg4 mi
7:54 AM50 °FFog.3 mph93%29.82 "Hg2 mi
6:54 AM50 °FFog.5 mph93%29.80 "Hg3 mi
5:54 AM50 °FFog.3 mph93%29.79 "Hg4 mi
4:54 AM51 °FFog.7 mph92%29.78 "Hg4 mi
3:54 AM50 °FLight rain. Mostly cloudy.10 mph93%29.77 "Hg10 mi
3:00 AM50 °FLight rain. Mostly cloudy.10 mph93%29.77 "Hg7 mi
1:54 AM50 °FLight rain. Fog.10 mph89%29.78 "Hg6 mi
12:54 AM50 °FLight rain. Mostly cloudy.12 mph89%29.80 "Hg10 mi
11:54 PM
Oct 20
51 °FMostly cloudy.10 mph83%29.81 "Hg10 mi
10:54 PM51 °FLight rain. Mostly cloudy.14 mph83%29.83 "Hg7 mi
9:54 PM51 °FOvercast.13 mph83%29.83 "Hg10 mi
8:54 PM51 °FMostly cloudy.15 mph83%29.84 "Hg10 mi
7:54 PM52 °FLight rain. Overcast.9 mph80%29.84 "Hg10 mi
6:54 PM52 °FLight rain. Overcast.8 mph80%29.83 "Hg10 mi
5:54 PM54 °FLight rain. Mostly cloudy.9 mph67%29.82 "Hg9 mi
4:54 PM56 °FMostly cloudy.12 mph60%29.81 "Hg10 mi
3:54 PM56 °FPartly sunny.17 mph62%29.82 "Hg10 mi
Weather by CustomWeather, © 2014

See weather overviewHow to use our weather pages